STARLINK-34991

Last updated on Thu Oct 02 2025 00:02:05 GMT+0000 (Coordinated Universal Time)

1 65446U 25194N 25274.31741260 .00084555 00000+0 21462-2 0 9993 2 65446 97.6032 126.6257 0002265 83.3696 276.7807 15.39344429 5627

Satellite not in orbit

STARLINK-34991